Weather in Belgrade

Serbia     44°49′01″N   20°27′43″E
temp.,
°C
wind,
m/s
gust,
m/s
humid.,
%
clouds,
%
prec.,
mm/h
press.,
hPa
HPBL,
m
2 august, mon
mon223:00+31wsw614261 0.0 1007682
02:00+25w24405 0.0 1008138
05:00+20nnw34760 0.0 1010172
08:00+22nnw45660 0.0 1012547
11:00+27nw43450 0.0 10131149
14:00+30nnw33351 0.0 10121526
17:00+31nnw43310 0.0 10112139
20:00+27n35384 0.0 1011181
3 august, tue
tue323:00+23ne12468 0.0 101337
02:00+22wsw11474 0.0 101427
05:00+20w11530 0.0 101427
08:00+23wsw22454 0.0 1016310
11:00+30w2230100 0.0 10151239
14:00+33ssw242544 0.0 10132865
17:00+34ne23221 0.0 10102606
20:00+28ne37355 0.1 1010224
4 august, wed
wed423:00+24nne24407 0.0 1012130
02:00+22sw2146100 0.0 101326
05:00+20ssw115299 0.0 101426
08:00+25se113940 0.0 1015247
11:00+32se33245 0.0 10141428
14:00+36sse2517100 0.0 10113369
17:00+36nnw2315100 0.0 10103089
20:00+29ene2224100 0.0 101025
5 august, thu
thu523:00+26ese2231100 0.0 101035
02:00+24ese23303 0.0 100952
05:00+23se35340 0.0 1008101
08:00+28sse362973 0.0 1008263
11:00+36w692030 0.0 10082529
14:00+34wnw4624100 0.0 10061377
17:00+24nw51167100 5.3 1008620
20:00+21ene34753 5.3 1008188
6 august, fri
fri623:00+20ese2379100 0.0 1010144
02:00+19nnw2287100 0.6 101074
05:00+18nnw2392100 0.0 1010130
08:00+20n237320 0.0 1011483
11:00+25n333912 0.0 10111128
14:00+29n43285 0.0 10091657
17:00+29n44275 0.0 10081905
20:00+24nnw11365 0.0 100912